Location: Bullescamps
(50.7149°N, 1.9779°E)
Time: 05:25:32
(UTC+00:00)

Daily predictions for brighter satellites

Satellite Brightness Start Highest point End
(mag) Time Altitude Azimuth Time Altitude Azimuth Time Altitude Azimuth
Cosmos 1464 Rocket 4.2 00:05:13 49° SW 00:06:43 63° WNW 00:12:51 10° N
Cosmos 1025 Rocket 3.2 00:02:34 10° NNW 00:06:21 67° NNW 00:06:21 67° NNW
USA 267 3.9 00:01:06 10° ENE 00:07:26 55° N 00:13:47 10° W
Okean 1 Rocket 4.2 00:09:30 33° E 00:09:30 33° E 00:13:13 10° NNE
SJ 16-02 2.8 00:09:53 27° E 00:09:53 27° E 00:13:04 10° NE
Okean 2 Rocket 3.1 00:10:41 79° NNW 00:10:41 79° NNW 00:15:00 10° N
Cosmos 1538 Rocket 4.0 00:06:00 10° NNW 00:11:04 61° WSW 00:11:04 61° WSW
SL-16 R/B 2.2 00:06:49 10° NNW 00:12:33 78° ENE 00:13:48 55° SE
Nadezhda 4 Rocket 4.1 00:08:25 10° NNW 00:14:36 62° W 00:15:44 53° SW
Cosmos 1975 4.4 00:15:44 27° WNW 00:15:44 27° WNW 00:19:12 10° N
Meteor 2-13 Rocket 4.4 00:09:52 10° N 00:16:01 85° ENE 00:17:20 58° SSE
Cosmos 2263 Rocket 4.4 00:14:58 11° ESE 00:16:01 12° E 00:17:52 10° ENE
KORONAS-FOTON 4.5 00:22:05 10° N 00:25:10 53° NNE 00:25:10 53° NNE
Cosmos 158 Rocket 4.1 00:23:28 10° NNW 00:28:53 74° ENE 00:29:59 56° SE
Cosmos 2297 Rocket 2.1 00:28:55 64° SW 00:29:50 84° WNW 00:35:33 10° NNE
Cosmos 2344 4.4 00:22:22 10° NW 00:31:41 63° SW 00:38:10 32° SSE
Cosmos 1092 Rocket 4.0 00:29:13 10° NNW 00:35:23 68° W 00:36:34 55° SSW
Cosmos 2112 Rocket 4.1 00:30:28 10° NNW 00:35:42 71° ENE 00:36:47 54° SE
In-Cosmos 22 4.3 00:30:34 10° NNW 00:35:59 55° W 00:36:23 53° WSW
USA 229 DEB 4.3 00:36:45 35° SE 00:37:44 37° ESE 00:43:54 10° NE
USA 229 4.3 00:36:53 35° SE 00:37:51 37° ESE 00:43:59 10° NE
Cosmos 2034 Rocket 4.5 00:37:47 41° WSW 00:39:30 51° WNW 00:45:41 10° N
Cosmos 2237 Rocket 3.3 00:36:49 10° NW 00:41:12 28° W 00:41:12 28° W
Cosmos 2219 3.4 00:41:47 47° WSW 00:43:09 62° WNW 00:48:45 10° NNE
Cosmos 2151 Rocket 3.9 00:43:30 57° WNW 00:43:30 57° WNW 00:47:45 10° N
Meteor 1-15 Rocket 4.1 00:43:07 63° S 00:44:03 82° ESE 00:49:40 10° NNE
Cosmos 1898 Rocket 4.2 00:43:57 38° ESE 00:44:31 39° ESE 00:49:20 10° NE
Cosmos 1892 Rocket 4.3 00:42:51 10° N 00:47:10 46° ENE 00:47:51 42° ESE
Meteor 1-24 Rocket 3.8 00:42:19 10° N 00:47:42 63° ENE 00:49:06 46° SE
NOSS 3-1 (A) 4.3 00:48:36 28° SE 00:49:16 29° ESE 00:54:33 10° ENE
Meteor 1-29 4.1 00:46:31 10° NNE 00:49:04 41° NE 00:49:04 41° NE
CZ-4 R/B 3.9 00:45:40 10° NNE 00:50:41 74° WNW 00:51:18 65° WSW
Cosmos 1674 3.6 00:47:09 10° NNW 00:49:53 43° NW 00:49:53 43° NW
Cosmos 1680 Rocket 3.3 00:45:40 10° NNW 00:50:55 79° WSW 00:51:28 70° S
Lacrosse 4 Rocket 4.3 00:49:12 10° NW 00:51:02 12° NNW 00:52:51 10° N
Cosmos 1603 4.4 00:47:26 10° NNW 00:53:04 51° NE 00:57:17 17° SE
Spot 1 4.3 00:52:54 55° E 00:53:11 57° ENE 00:57:12 10° N
Cosmos 1461 3.0 00:55:29 73° ESE 00:55:29 73° ESE 00:59:55 10° NE
ATLAS 3B R/B 4.4 00:56:08 10° WNW 01:01:50 29° NNW 01:07:40 10° NE
PSLV R/B 4.3 01:01:05 10° N 01:05:37 48° WNW 01:06:13 45° W
DELTA 2 DEB (DPAF) 4.3 01:05:02 58° ESE 01:05:43 69° ENE 01:10:09 10° N
CZ-2D R/B 3.0 01:01:04 10° NNE 01:06:17 42° E 01:07:59 33° SE
Cosmos 1340 Rocket 4.2 01:07:07 29° ESE 01:07:26 29° E 01:10:53 10° NNE
Cosmos 1766 3.3 01:11:18 71° NNW 01:11:18 71° NNW 01:14:51 10° N
Cosmos 1943 3.7 01:06:07 10° NNW 01:11:41 58° NE 01:16:10 16° SE
SL-16 R/B 2.6 01:09:25 33° SSE 01:12:26 77° ENE 01:18:42 10° NNW
Cosmos 1733 3.3 01:14:34 74° N 01:14:34 74° N 01:18:09 10° N
Cosmos 1626 2.5 01:12:09 10° NNW 01:15:17 59° NNW 01:15:17 59° NNW
Cosmos 1655 Rocket 3.9 01:09:43 10° N 01:16:01 85° ENE 01:18:27 40° SSE
Cosmos 2227 Rocket 2.9 01:18:31 33° WSW 01:20:34 47° NW 01:26:04 10° NNE
Cosmos 1544 Rocket 4.5 01:22:37 35° SE 01:23:40 42° E 01:27:54 10° NNE
Meteor 2-5 Rocket 3.8 01:18:40 10° NNW 01:24:07 54° W 01:25:04 48° SW
Cosmos 1470 3.3 01:24:18 46° ESE 01:24:42 48° E 01:28:33 10° NNE
NPP 4.2 01:19:55 10° NNE 01:25:10 49° E 01:27:04 34° SSE
Cosmos 1953 4.3 01:23:54 19° ESE 01:25:17 22° E 01:28:29 10° NE
Helios 1B rocket 3.1 01:21:55 10° N 01:25:47 40° WNW 01:25:58 40° WNW
Meteor 1-22 Rocket 4.0 01:25:04 53° S 01:26:22 89° E 01:31:49 10° NNE
Cosmos 2279 Rocket 4.0 01:29:43 44° SW 01:31:43 69° WNW 01:37:56 10° N
Cosmos 1805 4.1 01:32:08 39° WNW 01:32:08 39° WNW 01:35:40 10° N
Resurs 1-4 Rocket 2.1 01:34:33 10° NNE 01:39:51 76° ESE 01:41:36 43° S
Exosat Rocket 4.5 01:36:53 32° S 01:40:31 63° ESE 01:46:22 10° NNE
Cosmos 1602 Rocket 4.4 01:37:54 10° N 01:42:06 45° ENE 01:44:26 23° SE
Cosmos 2180 Rocket 4.4 01:39:58 42° SSW 01:42:09 72° WNW 01:48:19 10° N
Cosmos 2098 Rocket 3.8 01:38:01 10° NNW 01:43:32 80° W 01:46:32 34° S
NOSS 2-3 (E) 3.8 01:44:49 50° S 01:45:38 60° SE 01:50:43 10° NE
Cosmos 2227 4.5 01:44:00 38° S 01:46:07 61° ESE 01:51:48 10° NE
Cosmos 2082 4.2 01:44:36 32° WSW 01:46:47 49° NW 01:52:16 10° NNE
Okean 1 Rocket 4.2 01:46:41 28° W 01:47:12 29° WNW 01:51:04 10° N
SJ 16-02 2.2 01:46:52 35° W 01:47:45 38° WNW 01:51:54 10° N
USA 267 3.9 01:43:37 10° E 01:49:59 56° N 01:56:21 10° WNW
NOSS 3-1 (C) 3.3 01:48:09 39° SW 01:50:25 83° NW 01:57:05 10° NE
SL-14 R/B 4.3 01:49:29 10° NNW 01:52:33 32° WNW 01:52:33 32° WNW
Cosmos 1048 Rocket 4.5 01:50:02 10° NNW 01:55:08 60° ENE 02:00:16 10° SE
SL-16 R/B 3.6 01:51:56 10° NW 01:55:37 21° W 01:55:37 21° W
Cosmos 2263 Rocket 2.3 01:56:40 37° S 01:58:53 68° ESE 02:04:25 10° NNE
CZ-4C R/B 3.7 02:05:30 39° W 02:05:30 39° W 02:08:38 10° NNW
Cosmos 372 Rocket 4.2 02:04:37 34° S 02:06:51 67° ESE 02:12:05 10° NNE
Okean 1-7 Rocket 4.1 02:04:00 10° NNW 02:08:08 39° W 02:08:38 37° WSW
Cosmos 1937 Rocket 3.7 02:07:18 37° SW 02:09:21 64° WNW 02:14:40 10° NNE
Cosmos 1809 Rocket 4.4 02:03:18 10° NNW 02:09:25 79° W 02:13:15 24° S
Meteor 1-28 Rocket 4.4 02:06:34 13° SE 02:09:45 41° ENE 02:13:22 10° N
NOSS 2-3 (D) 3.6 02:08:30 44° SW 02:09:56 83° SE 02:15:11 10° NE
COBE Rocket 3.7 02:08:32 36° S 02:10:24 73° WSW 02:15:05 10° NNW
SL-08 R/B 4.0 02:05:49 10° SE 02:10:39 56° ENE 02:15:30 10° N
ADEOS II 2.4 02:06:14 10° NNE 02:11:28 60° ESE 02:14:31 24° S
Cosmos 1626 Rocket 3.4 02:07:16 10° NNW 02:11:36 73° W 02:13:03 41° S
Cosmos 1455 Rocket 3.5 02:12:38 38° WSW 02:13:45 48° WNW 02:18:06 10° N
CZ-4B R/B 3.4 02:09:41 10° NNE 02:14:27 77° ESE 02:16:40 32° S
Cosmos 2297 Rocket 4.0 02:10:42 11° W 02:14:45 22° NW 02:19:10 10° NNE
ATLAS CENTAUR R/B 2.3 02:13:46 29° SSE 02:14:56 35° ESE 02:18:32 10° NE
Cosmos 1726 2.0 02:14:19 50° S 02:15:12 82° E 02:18:53 10° NNE
Cosmos 2266 Rocket 4.4 02:14:11 10° NNW 02:20:11 46° W 02:22:57 29° SW
Cosmos 1844 Rocket 4.4 02:17:45 10° SSE 02:22:14 26° ESE 02:26:44 10° NE
GEOS 3 Rocket 3.7 02:20:05 10° NE 02:25:32 87° SE 02:28:25 29° SW
Cosmos 1898 Rocket 4.4 02:24:13 24° WSW 02:26:38 37° NW 02:31:28 10° NNE
Meteor 1-21 Rocket 4.1 02:22:30 10° NNW 02:28:00 67° W 02:31:40 22° S
Meteor 2-21 4.4 02:22:00 10° NNW 02:28:01 67° W 02:32:12 21° S
Cosmos 468 4.4 02:22:58 10° NNW 02:28:15 75° WSW 02:33:31 10° SSE
CBERS-1 4.0 02:23:06 10° NNE 02:28:15 88° ESE 02:31:10 27° SSW
USA 229 DEB 3.9 02:24:11 24° WSW 02:28:20 65° NW 02:35:20 10° NE
USA 229 3.9 02:24:18 24° WSW 02:28:27 65° NW 02:35:25 10° NE
Meteor 2-10 4.2 02:27:11 27° SSW 02:30:20 79° WNW 02:36:06 10° N
Cosmos 2084 3.9 02:28:47 32° S 02:30:35 55° SE 02:34:58 10° NE
ARIANE 5 R/B 3.3 02:26:43 10° NNE 02:31:49 50° E 02:36:11 14° S
Cosmos 1244 Rocket 4.5 02:27:15 10° N 02:33:39 84° W 02:39:39 11° S
Cosmos 1758 Rocket 3.6 02:30:04 10° N 02:34:25 78° ENE 02:38:13 13° SSE
Cosmos 1603 4.4 02:31:55 10° NW 02:37:00 33° WSW 02:39:05 26° SW
NOSS 2-3 (C) 4.0 02:35:34 28° WSW 02:37:53 64° NW 02:43:16 10° NE
NOSS 3-1 (A) 3.6 02:36:02 24° WSW 02:39:33 68° NW 02:46:16 10° NE
Cosmos 494 Rocket 3.9 02:38:23 10° NNW 02:43:35 89° WSW 02:48:47 10° SSE
Cosmos 1340 Rocket 4.0 02:42:43 24° W 02:43:52 28° WNW 02:47:18 10° N
Cosmos 2150 Rocket 4.0 02:42:28 24° SSW 02:45:39 90° WNW 02:50:58 10° NNE
Cosmos 1758 4.4 02:44:28 25° WSW 02:45:41 30° WNW 02:49:14 10° N
CZ-2D R/B 3.0 02:41:16 10° N 02:46:18 37° WNW 02:49:19 21° WSW
H-2A R/B 3.2 02:44:44 10° SE 02:48:36 42° ENE 02:52:31 10° N
Cosmos 1703 3.2 02:46:02 10° NNW 02:50:00 67° W 02:52:42 19° S
Cosmos 1825 Rocket 3.4 02:48:38 10° N 02:52:59 87° W 02:57:19 10° S
Cosmos 1943 4.1 02:50:40 10° NW 02:55:24 28° WSW 02:57:52 21° SW
SL-16 R/B 3.8 02:54:31 19° WSW 02:56:42 23° W 03:01:30 10° NW
Landsat 5 4.5 02:53:39 10° SE 02:57:32 48° ENE 03:01:36 10° N
Cosmos 1125 Rocket 3.6 02:54:00 18° SSW 02:57:55 78° ESE 03:03:13 10° NNE
USA 215 4.0 02:52:26 10° ENE 02:58:38 43° SE 03:03:50 15° SSW
IRS-1C 4.1 02:54:13 10° NNE 02:59:35 81° WNW 03:03:50 17° SSW
Cosmos 1953 3.1 02:59:36 24° SW 03:01:28 38° WNW 03:05:18 10° N
IRS-1D 3.9 02:57:46 10° N 03:02:41 49° WNW 03:06:07 19° SW
Cosmos 1328 3.9 02:59:53 10° NNW 03:03:49 56° W 03:07:01 15° S
Cosmos 1953 Rocket 3.6 02:59:57 10° N 03:04:28 84° E 03:08:56 10° S
Cosmos 2227 Rocket 4.4 03:02:54 10° WNW 03:06:08 15° NNW 03:09:22 10° N
CZ-4B R/B 4.5 03:04:28 10° ESE 03:06:30 16° ENE 03:08:31 10° NNE
CZ-2D R/B 3.5 03:05:10 10° NNE 03:09:11 72° ESE 03:12:51 12° S
Resurs 1-4 Rocket 3.7 03:15:16 10° N 03:19:09 21° WNW 03:22:40 11° W
USA 238 DEB 4.3 03:12:11 10° NW 03:19:18 67° NE 03:26:43 10° ESE
USA 238 4.3 03:12:17 10° NW 03:19:24 67° NE 03:26:49 10° ESE
Meteor 2-8 Rocket 4.4 03:15:17 10° SSW 03:21:22 74° WNW 03:27:30 10° N
NOSS 8 (F) 4.1 03:20:18 20° SW 03:22:18 77° NW 03:25:21 10° NE
Atlas Centaur 2 4.3 03:20:45 10° SSW 03:23:31 13° S 03:26:28 10° SSE
Cosmos 1606 Rocket 3.6 03:19:25 12° SSW 03:23:31 70° W 03:28:00 10° N
CENTAUR R/B 3.9 03:17:46 10° NW 03:25:22 58° NE 03:33:55 10° ESE
NOSS 2-2 (E) 4.0 03:22:45 13° SSW 03:25:49 45° SE 03:29:43 10° NE
NOSS 2-2 (D) 4.3 03:23:29 10° S 03:26:44 36° ESE 03:30:23 10° NE
IDEFIX/ARIANE 42P 2.6 03:23:01 10° NNE 03:28:15 85° WNW 03:33:29 10° SSW
Cosmos 2082 Rocket 4.5 03:26:05 10° NNW 03:30:58 29° NE 03:35:49 10° ESE
USA 267 3.3 03:26:15 10° ESE 03:32:49 86° SSW 03:39:25 10° WNW
MSX 4.0 03:28:20 10° NNE 03:34:08 78° ESE 03:39:55 10° SSW
Cosmos 1908 4.1 03:31:23 15° SW 03:34:12 33° WNW 03:37:47 10° N
COSMOS 2406 4.0 03:30:20 10° NNW 03:35:59 57° NE 03:41:33 10° SE
Cosmos 1726 Rocket 3.7 03:33:48 10° SSW 03:38:13 63° WNW 03:42:40 10° N
Cosmos 2228 3.4 03:36:23 11° SSW 03:40:31 47° WNW 03:44:48 10° N
Cosmos 2315 Rocket 4.4 03:36:09 10° S 03:42:26 70° E 03:48:48 10° NNE
ADEOS Rocket 4.4 03:35:43 10° SE 03:43:17 58° ENE 03:50:45 10° N
Cosmos 2263 Rocket 3.4 03:38:30 10° WSW 03:43:17 29° NW 03:48:06 10° NNE
Cosmos 1844 3.9 03:38:06 10° SSW 03:43:54 80° ESE 03:49:41 10° NNE
Cosmos 2084 Rocket 4.2 03:43:24 10° NW 03:47:48 60° NE 03:52:16 10° ESE
CZ-2C R/B 2.7 03:44:03 10° N 03:47:52 69° WNW 03:51:36 10° SSW
Cosmos 1455 4.3 03:47:08 10° SSE 03:50:32 30° E 03:53:57 10° NNE
ADEOS II 3.4 03:46:33 10° N 03:50:49 26° WNW 03:55:04 10° WSW
Cosmos 1726 4.4 03:50:16 10° WNW 03:50:59 10° WNW 03:51:42 10° NW
Cosmos 1356 Rocket 3.8 03:47:03 10° SSW 03:51:04 47° WNW 03:55:03 10° N
Spot 4 Rocket 4.3 03:47:28 10° N 03:52:30 54° WNW 03:57:30 10° SW
ATLAS CENTAUR R/B 2.2 03:50:04 10° WSW 03:53:50 36° NW 03:57:25 10° NNE
Cosmos 1300 2.9 03:50:26 10° SSW 03:54:10 55° WNW 03:57:57 10° N
ERS-2 2.4 03:53:38 10° S 03:57:10 47° WSW 04:00:44 10° NNW
CZ-4C R/B 3.7 03:57:07 10° SSW 04:00:07 31° W 04:03:14 10° NNW
COSMOS 2441 4.4 03:58:17 10° N 04:03:04 67° WNW 04:07:52 10° SSW
Cosmos 2278 Rocket 3.8 03:59:58 10° S 04:05:02 35° ESE 04:10:07 10° NE
Cosmos 1076 Rocket 3.9 04:01:02 10° N 04:05:25 74° ENE 04:09:46 10° SSE
Cosmos 1844 Rocket 2.8 04:00:11 10° SW 04:05:43 63° NW 04:11:16 10° NNE
Cosmos 2251 Rocket 3.7 04:01:05 10° NNW 04:06:30 83° ENE 04:11:53 10° SSE
